Location: Arroyo Grande
(40.2671°N, 4.2512°W)
Time: 17:06:07
(UTC+00:00)

SL-08 RB Rocket - Pass Details

Date: 03 February 2023
Orbit: 643 x 682 km, 97.7° (Epoch: 22 March)

Event Time Altitude Azimuth Distance (km) Brightness Sun altitude
Rises 17:57:45 0° 171° (S) 3,011 7.2 -4.5°
Reaches altitude 10° 17:59:58 10° 173° (S) 2,106 6.4 -4.9°
Maximum altitude 18:04:35 73° 258° (WSW) 715 4.1 -5.7°
Drops below altitude 10° 18:09:15 10° 344° (NNW) 2,133 6.3 -6.6°
Sets 18:11:31 0° 346° (NNW) 3,054 7.1 -7.0°
